Notices

What's New in latest Release from April 7th, 2021:

- Updated Glossary, including Speed of Maximum Gust, and Total Hourly Precipitation

- Updated national and regional climate services offices contacts and prices information

- Addition of station inventory lists for 1981-2010, 1971-2000, and 1961-1990 Normals.

If you haven't already, please take our survey and provide feedback about our website: https://eccc.sondage-survey.ca/f/LanguageSelection.aspx?s=442ca660-fcf1-47c0-95a9-59707d6fd709

Hourly Data Report for May 31, 2003

TORONTO CITY
ONTARIO

43°40'00.000" N
79°24'00.000" W
112.50 m
6158355
71508
XTO

Download Data

Hourly Data (May 2003)
Hourly Data Report for May 31, 2003
TIME
LST
Temp Definition
°C
Dew Point Definition
°C
Rel Hum Definition
%
Precip. Amount Definition
mm

Wind Dir Definition
10's deg

Wind Spd Definition
km/h
Visibility Definition
km
Stn Press Definition
kPa
Hmdx Definition


Wind Chill Definition


Weather Definition


00:00 16.1 6.8 54   LegendMM LegendMM LegendMM 99.03     LegendNANA
01:00 15.2 8.0 62   LegendMM LegendMM LegendMM 98.99     LegendNANA
02:00 14.5 8.9 69   LegendMM LegendMM LegendMM 99.01     LegendNANA
03:00 13.6 9.9 78   LegendMM LegendMM LegendMM 98.96     LegendNANA
04:00 13.4 10.4 82   LegendMM LegendMM LegendMM 98.95     LegendNANA
05:00 13.4 10.6 83   LegendMM LegendMM LegendMM 98.91     LegendNANA
06:00 13.2 10.4 83   LegendMM LegendMM LegendMM 98.90     LegendNANA
07:00 13.6 10.2 80   LegendMM LegendMM LegendMM 98.88     LegendNANA
08:00 14.4 9.8 74   LegendMM LegendMM LegendMM 98.85     LegendNANA
09:00 15.3 10.1 71   LegendMM LegendMM LegendMM 98.87     LegendNANA
10:00 16.4 10.3 67   LegendMM LegendMM LegendMM 98.83     LegendNANA
11:00 17.0 10.4 65   LegendMM LegendMM LegendMM 98.84     LegendNANA
12:00 16.8 10.7 67   LegendMM LegendMM LegendMM 98.84     LegendNANA
13:00 13.8 12.0 89   LegendMM LegendMM LegendMM 98.87     LegendNANA
14:00 14.1 13.0 93   LegendMM LegendMM LegendMM 98.89     LegendNANA
15:00 13.3 12.4 94   LegendMM LegendMM LegendMM 98.91     LegendNANA
16:00 13.6 12.8 95   LegendMM LegendMM LegendMM 98.95     LegendNANA
17:00 13.2 12.1 93   LegendMM LegendMM LegendMM 98.99     LegendNANA
18:00 13.1 11.3 89   LegendMM LegendMM LegendMM 99.06     LegendNANA
19:00 13.1 10.8 86   LegendMM LegendMM LegendMM 99.13     LegendNANA
20:00 12.5 9.2 80   LegendMM LegendMM LegendMM 99.20     LegendNANA
21:00 12.4 7.7 73   LegendMM LegendMM LegendMM 99.26     LegendNANA
22:00 11.7 6.4 70   LegendMM LegendMM LegendMM 99.31     LegendNANA
23:00 11.7 6.0 68   LegendMM LegendMM LegendMM 99.33     LegendNANA

Notes on Data Quality.

Legend

  • E = Estimated
  • M = Missing
  • NA = Not Available*
  • [empty] = Indicates an unobserved value
Date modified: